Time,TemperatureF,DewpointF,PressureIn,WindDirection,WindDirectionDegrees,WindSpeedMPH,WindSpeedGustMPH,Humidity,HourlyPrecipIn,Conditions,Clouds,dailyrainin,SoftwareType,DateUTC
2013-06-25 00:05:00,74.3,67.4,29.82,North,360,2.0,5.0,79,0.00,,,0.00,Wunderground v.1.15,2013-06-25 04:05:00,
2013-06-25 00:10:00,74.3,65.9,29.82,North,355,3.0,3.0,75,0.00,,,0.00,Wunderground v.1.15,2013-06-25 04:10:00,
2013-06-25 00:14:00,74.4,65.2,29.83,NW,322,4.0,6.0,73,0.00,,,0.00,Wunderground v.1.15,2013-06-25 04:14:00,
2013-06-25 00:20:00,74.3,63.9,29.83,NW,319,4.0,5.0,70,0.00,,,0.00,Wunderground v.1.15,2013-06-25 04:20:00,
2013-06-25 00:30:00,74.1,63.7,29.82,WNW,284,4.0,4.0,70,0.00,,,0.00,Wunderground v.1.15,2013-06-25 04:30:00,
2013-06-25 00:34:00,73.9,63.5,29.82,NW,318,4.0,5.0,70,0.00,,,0.00,Wunderground v.1.15,2013-06-25 04:34:00,
2013-06-25 00:40:00,73.7,63.7,29.82,NW,309,2.0,2.0,71,0.00,,,0.00,Wunderground v.1.15,2013-06-25 04:40:00,
2013-06-25 00:45:00,73.5,63.9,29.82,NW,313,1.0,5.0,72,0.00,,,0.00,Wunderground v.1.15,2013-06-25 04:45:00,
2013-06-25 00:50:00,73.3,63.7,29.82,WNW,295,0.0,5.0,72,0.00,,,0.00,Wunderground v.1.15,2013-06-25 04:50:00,
2013-06-25 00:55:00,73.1,63.9,29.82,WNW,301,1.0,5.0,73,0.00,,,0.00,Wunderground v.1.15,2013-06-25 04:55:00,
2013-06-25 01:05:00,72.8,64.0,29.82,WNW,300,0.0,5.0,74,0.00,,,0.00,Wunderground v.1.15,2013-06-25 05:05:00,
2013-06-25 01:10:00,72.6,63.8,29.82,WNW,300,0.0,5.0,74,0.00,,,0.00,Wunderground v.1.15,2013-06-25 05:10:00,
2013-06-25 01:15:00,72.4,64.0,29.81,WNW,282,0.0,5.0,75,0.00,,,0.00,Wunderground v.1.15,2013-06-25 05:15:00,
2013-06-25 01:19:00,72.2,63.4,29.81,WNW,284,0.0,5.0,74,0.00,,,0.00,Wunderground v.1.15,2013-06-25 05:19:00,
2013-06-25 01:25:00,72.0,63.6,29.81,WNW,283,0.0,5.0,75,0.00,,,0.00,Wunderground v.1.15,2013-06-25 05:25:00,
2013-06-25 01:30:00,71.9,63.5,29.81,WNW,283,0.0,5.0,75,0.00,,,0.00,Wunderground v.1.15,2013-06-25 05:30:00,
2013-06-25 01:39:00,71.5,63.5,29.81,NW,304,1.0,1.0,76,0.00,,,0.00,Wunderground v.1.15,2013-06-25 05:39:00,
2013-06-25 01:45:00,71.3,63.3,29.82,NW,306,1.0,5.0,76,0.00,,,0.00,Wunderground v.1.15,2013-06-25 05:45:00,
2013-06-25 01:50:00,71.0,63.4,29.82,NW,306,1.0,1.0,77,0.00,,,0.00,Wunderground v.1.15,2013-06-25 05:50:00,
2013-06-25 02:00:00,70.6,63.0,29.82,NW,306,3.0,6.0,77,0.00,,,0.00,Wunderground v.1.15,2013-06-25 06:00:00,
2013-06-25 02:05:00,70.3,63.1,29.82,NW,309,3.0,6.0,78,0.00,,,0.00,Wunderground v.1.15,2013-06-25 06:05:00,
2013-06-25 02:15:00,69.9,63.4,29.82,NW,321,2.0,5.0,80,0.00,,,0.00,Wunderground v.1.15,2013-06-25 06:15:00,
2013-06-25 02:20:00,69.7,63.3,29.82,WNW,299,2.0,5.0,80,0.00,,,0.00,Wunderground v.1.15,2013-06-25 06:20:00,
2013-06-25 02:24:00,69.5,63.4,29.82,NNW,329,2.0,5.0,81,0.00,,,0.00,Wunderground v.1.15,2013-06-25 06:24:00,
2013-06-25 02:30:00,69.3,63.6,29.82,WNW,296,2.0,6.0,82,0.00,,,0.00,Wunderground v.1.15,2013-06-25 06:30:00,
2013-06-25 02:40:00,69.0,63.6,29.82,NW,319,2.0,5.0,83,0.00,,,0.00,Wunderground v.1.15,2013-06-25 06:40:00,
2013-06-25 02:44:00,68.9,63.5,29.82,NNW,337,2.0,5.0,83,0.00,,,0.00,Wunderground v.1.15,2013-06-25 06:44:00,
2013-06-25 02:50:00,68.8,63.4,29.82,NNW,333,3.0,5.0,83,0.00,,,0.00,Wunderground v.1.15,2013-06-25 06:50:00,
2013-06-25 02:55:00,68.7,63.3,29.82,NNE,32,3.0,7.0,83,0.00,,,0.00,Wunderground v.1.15,2013-06-25 06:55:00,
2013-06-25 03:00:00,68.6,63.6,29.82,NNW,331,3.0,5.0,84,0.00,,,0.00,Wunderground v.1.15,2013-06-25 07:00:00,
2013-06-25 03:04:00,68.4,63.4,29.82,NNE,29,2.0,5.0,84,0.00,,,0.00,Wunderground v.1.15,2013-06-25 07:04:00,
2013-06-25 03:10:00,68.3,63.3,29.82,NW,314,3.0,3.0,84,0.00,,,0.00,Wunderground v.1.15,2013-06-25 07:10:00,
2013-06-25 03:15:00,68.3,63.3,29.82,NW,321,3.0,5.0,84,0.00,,,0.00,Wunderground v.1.15,2013-06-25 07:15:00,
2013-06-25 03:20:00,68.2,63.2,29.82,North,350,3.0,3.0,84,0.00,,,0.00,Wunderground v.1.15,2013-06-25 07:20:00,
2013-06-25 03:25:00,68.1,63.4,29.82,NW,306,3.0,5.0,85,0.00,,,0.00,Wunderground v.1.15,2013-06-25 07:25:00,
2013-06-25 03:30:00,68.1,63.4,29.82,North,360,3.0,3.0,85,0.00,,,0.00,Wunderground v.1.15,2013-06-25 07:30:00,
2013-06-25 03:35:00,68.0,63.3,29.82,North,5,3.0,5.0,85,0.00,,,0.00,Wunderground v.1.15,2013-06-25 07:35:00,
2013-06-25 03:40:00,68.0,63.3,29.82,NW,314,3.0,3.0,85,0.00,,,0.00,Wunderground v.1.15,2013-06-25 07:40:00,
2013-06-25 03:45:00,68.0,63.3,29.82,North,360,3.0,5.0,85,0.00,,,0.00,Wunderground v.1.15,2013-06-25 07:45:00,
2013-06-25 03:49:00,67.9,63.6,29.82,NW,313,3.0,5.0,86,0.00,,,0.00,Wunderground v.1.15,2013-06-25 07:49:00,
2013-06-25 03:55:00,67.8,63.5,29.82,NW,312,3.0,5.0,86,0.00,,,0.00,Wunderground v.1.15,2013-06-25 07:55:00,
2013-06-25 04:00:00,67.7,63.4,29.82,NW,317,3.0,3.0,86,0.00,,,0.00,Wunderground v.1.15,2013-06-25 08:00:00,
2013-06-25 04:05:00,67.6,63.3,29.82,NNW,327,3.0,5.0,86,0.00,,,0.00,Wunderground v.1.15,2013-06-25 08:05:00,
2013-06-25 04:09:00,67.5,63.2,29.82,North,5,2.0,2.0,86,0.00,,,0.00,Wunderground v.1.15,2013-06-25 08:09:00,
2013-06-25 04:15:00,67.4,63.4,29.82,NW,324,2.0,5.0,87,0.00,,,0.00,Wunderground v.1.15,2013-06-25 08:15:00,
2013-06-25 04:25:00,67.3,63.3,29.82,North,355,1.0,5.0,87,0.00,,,0.00,Wunderground v.1.15,2013-06-25 08:25:00,
2013-06-25 04:35:00,67.2,63.2,29.82,NNW,333,1.0,5.0,87,0.00,,,0.00,Wunderground v.1.15,2013-06-25 08:35:00,
2013-06-25 04:40:00,67.1,63.4,29.82,NNW,327,1.0,1.0,88,0.00,,,0.00,Wunderground v.1.15,2013-06-25 08:40:00,
2013-06-25 04:45:00,67.1,63.4,29.82,NW,317,2.0,2.0,88,0.00,,,0.00,Wunderground v.1.15,2013-06-25 08:45:00,
2013-06-25 04:50:00,67.0,63.3,29.82,NW,311,1.0,5.0,88,0.00,,,0.00,Wunderground v.1.15,2013-06-25 08:50:00,
2013-06-25 04:55:00,67.0,63.3,29.82,NNE,22,1.0,5.0,88,0.00,,,0.00,Wunderground v.1.15,2013-06-25 08:55:00,
2013-06-25 05:05:00,67.1,63.1,29.82,WNW,298,1.0,5.0,87,0.00,,,0.00,Wunderground v.1.15,2013-06-25 09:05:00,
2013-06-25 05:15:00,67.1,63.1,29.82,NNW,333,0.0,5.0,87,0.00,,,0.00,Wunderground v.1.15,2013-06-25 09:15:00,
2013-06-25 05:20:00,67.2,63.2,29.82,WNW,286,1.0,5.0,87,0.00,,,0.00,Wunderground v.1.15,2013-06-25 09:20:00,
2013-06-25 05:24:00,67.2,63.2,29.82,WNW,300,2.0,5.0,87,0.00,,,0.00,Wunderground v.1.15,2013-06-25 09:24:00,
2013-06-25 05:30:00,67.2,63.2,29.82,WNW,296,2.0,5.0,87,0.00,,,0.00,Wunderground v.1.15,2013-06-25 09:30:00,
2013-06-25 05:35:00,67.2,63.2,29.82,WNW,296,1.0,5.0,87,0.00,,,0.00,Wunderground v.1.15,2013-06-25 09:35:00,
2013-06-25 05:40:00,67.3,63.3,29.82,WNW,296,1.0,5.0,87,0.00,,,0.00,Wunderground v.1.15,2013-06-25 09:40:00,
2013-06-25 05:44:00,67.3,63.6,29.82,WNW,296,1.0,5.0,88,0.00,,,0.00,Wunderground v.1.15,2013-06-25 09:44:00,
2013-06-25 05:50:00,67.5,63.8,29.82,NW,314,2.0,5.0,88,0.00,,,0.00,Wunderground v.1.15,2013-06-25 09:50:00,
2013-06-25 06:00:00,67.8,64.1,29.83,NW,308,2.0,2.0,88,0.00,,,0.00,Wunderground v.1.15,2013-06-25 10:00:00,
2013-06-25 06:04:00,67.9,64.2,29.83,NNW,336,1.0,5.0,88,0.00,,,0.00,Wunderground v.1.15,2013-06-25 10:04:00,
2013-06-25 06:10:00,68.0,64.6,29.83,WNW,302,2.0,2.0,89,0.00,,,0.00,Wunderground v.1.15,2013-06-25 10:10:00,
2013-06-25 06:15:00,68.1,64.4,29.83,NW,311,3.0,5.0,88,0.00,,,0.00,Wunderground v.1.15,2013-06-25 10:15:00,
2013-06-25 06:20:00,68.3,64.6,29.83,North,355,2.0,2.0,88,0.00,,,0.00,Wunderground v.1.15,2013-06-25 10:20:00,
2013-06-25 06:24:00,68.3,64.6,29.83,NW,312,2.0,5.0,88,0.00,,,0.00,Wunderground v.1.15,2013-06-25 10:24:00,
2013-06-25 06:30:00,68.4,64.4,29.83,NNE,28,3.0,7.0,87,0.00,,,0.00,Wunderground v.1.15,2013-06-25 10:30:00,
2013-06-25 06:35:00,68.5,64.5,29.83,North,360,3.0,7.0,87,0.00,,,0.00,Wunderground v.1.15,2013-06-25 10:35:00,
2013-06-25 06:40:00,68.6,64.6,29.83,NW,305,3.0,3.0,87,0.00,,,0.00,Wunderground v.1.15,2013-06-25 10:40:00,
2013-06-25 06:45:00,68.7,64.7,29.83,NNW,329,2.0,5.0,87,0.00,,,0.00,Wunderground v.1.15,2013-06-25 10:45:00,
2013-06-25 06:49:00,68.8,64.8,29.83,North,360,2.0,5.0,87,0.00,,,0.00,Wunderground v.1.15,2013-06-25 10:49:00,
2013-06-25 06:55:00,68.8,65.1,29.83,North,5,3.0,6.0,88,0.00,,,0.00,Wunderground v.1.15,2013-06-25 10:55:00,
2013-06-25 07:00:00,68.8,65.1,29.85,NW,313,4.0,4.0,88,0.00,,,0.00,Wunderground v.1.15,2013-06-25 11:00:00,
2013-06-25 07:09:00,68.2,65.2,29.85,North,5,4.0,7.0,90,0.08,,,0.02,Wunderground v.1.15,2013-06-25 11:09:00,
2013-06-25 07:15:00,67.7,65.0,29.87,NNE,25,5.0,7.0,91,0.12,,,0.03,Wunderground v.1.15,2013-06-25 11:15:00,
2013-06-25 07:20:00,67.4,65.0,29.87,North,355,5.0,7.0,92,0.13,,,0.04,Wunderground v.1.15,2013-06-25 11:20:00,
2013-06-25 07:25:00,67.1,64.7,29.87,NNW,327,5.0,7.0,92,0.09,,,0.04,Wunderground v.1.15,2013-06-25 11:25:00,
2013-06-25 07:29:00,66.9,64.8,29.89,WNW,290,5.0,5.0,93,0.30,,,0.06,Wunderground v.1.15,2013-06-25 11:29:00,
2013-06-25 07:35:00,66.7,64.9,29.89,North,360,5.0,5.0,94,0.35,,,0.09,Wunderground v.1.15,2013-06-25 11:35:00,
2013-06-25 07:40:00,66.6,64.8,29.89,North,360,5.0,7.0,94,0.19,,,0.10,Wunderground v.1.15,2013-06-25 11:40:00,
2013-06-25 07:45:00,66.5,64.7,29.89,NW,313,4.0,7.0,94,0.12,,,0.11,Wunderground v.1.15,2013-06-25 11:45:00,
2013-06-25 07:50:00,66.4,64.6,29.89,WNW,295,2.0,2.0,94,0.06,,,0.11,Wunderground v.1.15,2013-06-25 11:50:00,
2013-06-25 07:55:00,66.4,64.9,29.89,WNW,295,1.0,5.0,95,0.06,,,0.12,Wunderground v.1.15,2013-06-25 11:55:00,
2013-06-25 08:00:00,66.4,64.9,29.87,WNW,295,0.0,5.0,95,0.18,,,0.14,Wunderground v.1.15,2013-06-25 12:00:00,
2013-06-25 08:10:00,66.4,64.9,29.87,WNW,295,0.0,5.0,95,0.14,,,0.16,Wunderground v.1.15,2013-06-25 12:10:00,
2013-06-25 08:15:00,66.4,64.9,29.85,WNW,295,0.0,5.0,95,0.09,,,0.17,Wunderground v.1.15,2013-06-25 12:15:00,
2013-06-25 08:19:00,66.5,65.3,29.85,WNW,295,0.0,5.0,96,0.09,,,0.17,Wunderground v.1.15,2013-06-25 12:19:00,
2013-06-25 08:25:00,66.5,65.3,29.85,WNW,295,0.0,5.0,96,0.06,,,0.18,Wunderground v.1.15,2013-06-25 12:25:00,
2013-06-25 08:35:00,66.6,65.4,29.84,WNW,295,0.0,5.0,96,0.05,,,0.18,Wunderground v.1.15,2013-06-25 12:35:00,
2013-06-25 08:39:00,66.7,65.5,29.84,West,262,0.0,5.0,96,0.04,,,0.19,Wunderground v.1.15,2013-06-25 12:39:00,
2013-06-25 08:45:00,66.7,65.5,29.84,SW,227,0.0,5.0,96,0.04,,,0.19,Wunderground v.1.15,2013-06-25 12:45:00,
2013-06-25 08:55:00,66.7,65.5,29.84,NW,309,1.0,5.0,96,0.00,,,0.19,Wunderground v.1.15,2013-06-25 12:55:00,
2013-06-25 08:59:00,66.7,65.5,29.86,WNW,295,1.0,1.0,96,0.00,,,0.19,Wunderground v.1.15,2013-06-25 12:59:00,
2013-06-25 09:05:00,66.7,65.5,29.86,WSW,256,1.0,5.0,96,0.00,,,0.19,Wunderground v.1.15,2013-06-25 13:05:00,
2013-06-25 09:10:00,66.8,65.6,29.86,WSW,254,1.0,5.0,96,0.00,,,0.19,Wunderground v.1.15,2013-06-25 13:10:00,
2013-06-25 09:15:00,66.7,65.5,29.86,SW,227,1.0,5.0,96,0.00,,,0.19,Wunderground v.1.15,2013-06-25 13:15:00,
2013-06-25 09:24:00,66.7,65.5,29.86,NW,309,1.0,2.0,96,0.00,,,0.19,Wunderground v.1.15,2013-06-25 13:24:00,
2013-06-25 09:30:00,66.7,65.5,29.87,NNW,327,2.0,2.0,96,0.00,,,0.19,Wunderground v.1.15,2013-06-25 13:30:00,
2013-06-25 09:35:00,66.7,65.5,29.87,NNE,13,2.0,5.0,96,0.00,,,0.19,Wunderground v.1.15,2013-06-25 13:35:00,
2013-06-25 09:40:00,66.8,65.6,29.87,ENE,59,3.0,5.0,96,0.00,,,0.19,Wunderground v.1.15,2013-06-25 13:40:00,
2013-06-25 09:44:00,66.8,65.6,29.89,North,5,3.0,5.0,96,0.00,,,0.19,Wunderground v.1.15,2013-06-25 13:44:00,
2013-06-25 09:50:00,66.8,65.6,29.89,North,360,2.0,5.0,96,0.00,,,0.19,Wunderground v.1.15,2013-06-25 13:50:00,
2013-06-25 09:55:00,66.8,65.6,29.89,North,5,1.0,5.0,96,0.00,,,0.19,Wunderground v.1.15,2013-06-25 13:55:00,
2013-06-25 10:00:00,66.9,65.7,29.88,North,5,1.0,5.0,96,0.00,,,0.19,Wunderground v.1.15,2013-06-25 14:00:00,
2013-06-25 10:09:00,67.0,66.1,29.88,NNW,341,2.0,2.0,97,0.00,,,0.19,Wunderground v.1.15,2013-06-25 14:09:00,
2013-06-25 10:15:00,67.4,66.5,29.85,NNW,340,1.0,5.0,97,0.00,,,0.19,Wunderground v.1.15,2013-06-25 14:15:00,
2013-06-25 10:20:00,67.8,66.9,29.85,NNW,340,0.0,5.0,97,0.00,,,0.19,Wunderground v.1.15,2013-06-25 14:20:00,
2013-06-25 10:29:00,68.0,67.1,29.77,NNW,340,1.0,1.0,97,0.00,,,0.19,Wunderground v.1.15,2013-06-25 14:29:00,
2013-06-25 10:35:00,67.9,67.0,29.77,NNW,340,0.0,5.0,97,0.00,,,0.19,Wunderground v.1.15,2013-06-25 14:35:00,
2013-06-25 10:40:00,68.0,67.1,29.77,NNW,340,0.0,5.0,97,0.00,,,0.19,Wunderground v.1.15,2013-06-25 14:40:00,
2013-06-25 10:45:00,68.1,67.2,29.80,NNW,340,0.0,5.0,97,0.00,,,0.19,Wunderground v.1.15,2013-06-25 14:45:00,
2013-06-25 10:49:00,68.2,67.3,29.80,NNW,340,0.0,5.0,97,0.00,,,0.19,Wunderground v.1.15,2013-06-25 14:49:00,
2013-06-25 10:55:00,68.3,67.1,29.80,NNW,331,1.0,5.0,96,0.00,,,0.19,Wunderground v.1.15,2013-06-25 14:55:00,
2013-06-25 11:00:00,68.3,67.1,29.82,WSW,243,2.0,2.0,96,0.00,,,0.19,Wunderground v.1.15,2013-06-25 15:00:00,
2013-06-25 11:05:00,68.4,67.2,29.82,WNW,294,2.0,5.0,96,0.00,,,0.19,Wunderground v.1.15,2013-06-25 15:05:00,
2013-06-25 11:09:00,68.4,67.2,29.82,WNW,295,1.0,1.0,96,0.00,,,0.19,Wunderground v.1.15,2013-06-25 15:09:00,
2013-06-25 11:20:00,68.7,67.5,29.83,WNW,296,1.0,5.0,96,0.00,,,0.19,Wunderground v.1.15,2013-06-25 15:20:00,
2013-06-25 11:25:00,68.9,67.7,29.83,WNW,296,1.0,5.0,96,0.00,,,0.19,Wunderground v.1.15,2013-06-25 15:25:00,
2013-06-25 11:29:00,69.2,68.0,29.83,WNW,283,1.0,5.0,96,0.00,,,0.19,Wunderground v.1.15,2013-06-25 15:29:00,
2013-06-25 11:34:00,69.4,68.2,29.83,WNW,287,2.0,5.0,96,0.00,,,0.19,Wunderground v.1.15,2013-06-25 15:34:00,
2013-06-25 11:40:00,69.7,68.2,29.83,WNW,296,2.0,5.0,95,0.00,,,0.19,Wunderground v.1.15,2013-06-25 15:40:00,
2013-06-25 11:49:00,70.1,68.3,29.82,NW,307,1.0,5.0,94,0.00,,,0.19,Wunderground v.1.15,2013-06-25 15:49:00,
2013-06-25 12:00:00,70.6,68.5,29.83,NNW,327,0.0,5.0,93,0.00,,,0.19,Wunderground v.1.15,2013-06-25 16:00:00,
2013-06-25 12:05:00,70.7,68.3,29.83,NW,310,1.0,5.0,92,0.00,,,0.19,Wunderground v.1.15,2013-06-25 16:05:00,
2013-06-25 12:14:00,71.2,68.4,29.83,NW,304,1.0,5.0,91,0.00,,,0.19,Wunderground v.1.15,2013-06-25 16:14:00,
2013-06-25 12:20:00,71.5,68.7,29.83,NW,304,1.0,1.0,91,0.00,,,0.19,Wunderground v.1.15,2013-06-25 16:20:00,
2013-06-25 12:25:00,71.8,68.7,29.83,NW,313,0.0,5.0,90,0.00,,,0.19,Wunderground v.1.15,2013-06-25 16:25:00,
2013-06-25 12:30:00,72.1,69.0,29.84,NW,325,0.0,5.0,90,0.00,,,0.19,Wunderground v.1.15,2013-06-25 16:30:00,
2013-06-25 12:34:00,72.3,68.9,29.84,WSW,257,0.0,5.0,89,0.00,,,0.19,Wunderground v.1.15,2013-06-25 16:34:00,
2013-06-25 12:39:00,72.7,69.3,29.84,WNW,286,0.0,5.0,89,0.00,,,0.19,Wunderground v.1.15,2013-06-25 16:39:00,
2013-06-25 12:45:00,73.0,69.6,29.83,NNW,327,1.0,5.0,89,0.00,,,0.19,Wunderground v.1.15,2013-06-25 16:45:00,
2013-06-25 12:50:00,73.2,69.4,29.83,NW,314,1.0,1.0,88,0.00,,,0.19,Wunderground v.1.15,2013-06-25 16:50:00,
2013-06-25 12:54:00,73.5,69.7,29.83,NNW,327,0.0,5.0,88,0.00,,,0.19,Wunderground v.1.15,2013-06-25 16:54:00,
2013-06-25 13:05:00,74.3,70.5,29.83,WNW,303,1.0,5.0,88,0.00,,,0.19,Wunderground v.1.15,2013-06-25 17:05:00,
2013-06-25 13:10:00,74.7,70.2,29.83,WNW,290,1.0,1.0,86,0.00,,,0.19,Wunderground v.1.15,2013-06-25 17:10:00,
2013-06-25 13:14:00,75.2,70.7,29.83,WNW,298,1.0,5.0,86,0.00,,,0.19,Wunderground v.1.15,2013-06-25 17:14:00,
2013-06-25 13:19:00,75.7,70.5,29.83,NW,321,1.0,1.0,84,0.00,,,0.19,Wunderground v.1.15,2013-06-25 17:19:00,
2013-06-25 13:25:00,76.0,70.8,29.83,North,355,1.0,5.0,84,0.00,,,0.19,Wunderground v.1.15,2013-06-25 17:25:00,
2013-06-25 13:30:00,76.5,71.3,29.83,NNW,329,0.0,5.0,84,0.00,,,0.19,Wunderground v.1.15,2013-06-25 17:30:00,
2013-06-25 13:35:00,76.8,70.9,29.83,North,360,1.0,5.0,82,0.00,,,0.19,Wunderground v.1.15,2013-06-25 17:35:00,
2013-06-25 13:45:00,77.3,69.9,29.82,NW,306,2.0,6.0,78,0.00,,,0.19,Wunderground v.1.15,2013-06-25 17:45:00,
2013-06-25 13:50:00,77.6,70.9,29.82,NW,325,2.0,2.0,80,0.00,,,0.19,Wunderground v.1.15,2013-06-25 17:50:00,
2013-06-25 13:55:00,77.6,70.6,29.82,NNW,327,1.0,5.0,79,0.00,,,0.19,Wunderground v.1.15,2013-06-25 17:55:00,
2013-06-25 14:04:00,77.8,70.4,29.82,NNW,336,1.0,5.0,78,0.00,,,0.19,Wunderground v.1.15,2013-06-25 18:04:00,
2013-06-25 14:10:00,77.9,70.5,29.82,North,355,3.0,5.0,78,0.00,,,0.19,Wunderground v.1.15,2013-06-25 18:10:00,
2013-06-25 14:15:00,78.2,71.2,29.82,NW,310,4.0,5.0,79,0.00,,,0.19,Wunderground v.1.15,2013-06-25 18:15:00,
2013-06-25 14:20:00,78.4,71.0,29.82,NW,306,3.0,5.0,78,0.00,,,0.19,Wunderground v.1.15,2013-06-25 18:20:00,
2013-06-25 14:30:00,79.3,71.1,29.79,North,5,2.0,7.0,76,0.00,,,0.19,Wunderground v.1.15,2013-06-25 18:30:00,
2013-06-25 14:35:00,79.7,71.1,29.79,North,355,3.0,7.0,75,0.00,,,0.19,Wunderground v.1.15,2013-06-25 18:35:00,
2013-06-25 14:40:00,80.3,72.0,29.79,NNW,346,2.0,2.0,76,0.00,,,0.19,Wunderground v.1.15,2013-06-25 18:40:00,
2013-06-25 14:44:00,80.9,71.4,29.76,North,355,1.0,5.0,73,0.00,,,0.19,Wunderground v.1.15,2013-06-25 18:44:00,
2013-06-25 14:50:00,81.2,70.9,29.76,NW,309,2.0,5.0,71,0.00,,,0.19,Wunderground v.1.15,2013-06-25 18:50:00,
2013-06-25 14:55:00,80.9,70.6,29.76,NNW,329,3.0,5.0,71,0.00,,,0.19,Wunderground v.1.15,2013-06-25 18:55:00,
2013-06-25 15:00:00,80.7,70.8,29.75,NW,315,3.0,5.0,72,0.00,,,0.19,Wunderground v.1.15,2013-06-25 19:00:00,
2013-06-25 15:05:00,80.7,71.2,29.75,NW,323,2.0,5.0,73,0.00,,,0.19,Wunderground v.1.15,2013-06-25 19:05:00,
2013-06-25 15:09:00,81.0,71.1,29.75,WNW,302,2.0,5.0,72,0.00,,,0.19,Wunderground v.1.15,2013-06-25 19:09:00,
2013-06-25 15:15:00,81.9,72.0,29.73,North,350,2.0,5.0,72,0.00,,,0.19,Wunderground v.1.15,2013-06-25 19:15:00,
2013-06-25 15:20:00,82.3,72.0,29.73,NW,304,2.0,2.0,71,0.00,,,0.19,Wunderground v.1.15,2013-06-25 19:20:00,
2013-06-25 15:25:00,82.3,71.1,29.73,NW,319,2.0,4.0,69,0.00,,,0.19,Wunderground v.1.15,2013-06-25 19:25:00,
2013-06-25 15:29:00,81.8,70.6,29.74,NW,304,3.0,3.0,69,0.00,,,0.19,Wunderground v.1.15,2013-06-25 19:29:00,
2013-06-25 15:34:00,81.9,72.0,29.74,North,360,3.0,4.0,72,0.00,,,0.19,Wunderground v.1.15,2013-06-25 19:34:00,
2013-06-25 15:40:00,81.8,71.5,29.74,NW,321,2.0,2.0,71,0.00,,,0.19,Wunderground v.1.15,2013-06-25 19:40:00,
2013-06-25 15:45:00,81.9,72.0,29.74,North,355,2.0,4.0,72,0.00,,,0.19,Wunderground v.1.15,2013-06-25 19:45:00,
2013-06-25 15:49:00,82.3,72.0,29.74,NNE,13,1.0,1.0,71,0.00,,,0.19,Wunderground v.1.15,2013-06-25 19:49:00,
2013-06-25 15:54:00,82.9,72.5,29.74,NNW,346,1.0,5.0,71,0.00,,,0.19,Wunderground v.1.15,2013-06-25 19:54:00,
2013-06-25 16:00:00,82.8,72.0,29.74,NNE,24,1.0,5.0,70,0.00,,,0.19,Wunderground v.1.15,2013-06-25 20:00:00,
2013-06-25 16:05:00,82.1,71.8,29.74,North,355,3.0,5.0,71,0.00,,,0.19,Wunderground v.1.15,2013-06-25 20:05:00,
2013-06-25 16:09:00,81.7,72.2,29.74,North,360,3.0,3.0,73,0.00,,,0.19,Wunderground v.1.15,2013-06-25 20:09:00,
2013-06-25 16:14:00,81.7,72.6,29.75,NE,53,2.0,5.0,74,0.00,,,0.19,Wunderground v.1.15,2013-06-25 20:14:00,
2013-06-25 16:20:00,81.9,72.8,29.75,East,92,3.0,3.0,74,0.00,,,0.19,Wunderground v.1.15,2013-06-25 20:20:00,
2013-06-25 16:25:00,82.3,72.4,29.75,NE,48,4.0,4.0,72,0.00,,,0.19,Wunderground v.1.15,2013-06-25 20:25:00,
2013-06-25 16:34:00,82.6,71.4,29.76,NE,34,4.0,6.0,69,0.00,,,0.19,Wunderground v.1.15,2013-06-25 20:34:00,
2013-06-25 16:40:00,82.8,71.2,29.76,NNW,329,3.0,3.0,68,0.00,,,0.19,Wunderground v.1.15,2013-06-25 20:40:00,
2013-06-25 16:45:00,82.8,71.2,29.76,NNE,24,3.0,4.0,68,0.00,,,0.19,Wunderground v.1.15,2013-06-25 20:45:00,
2013-06-25 16:50:00,82.8,70.7,29.76,North,360,3.0,7.0,67,0.00,,,0.19,Wunderground v.1.15,2013-06-25 20:50:00,
2013-06-25 16:54:00,82.8,71.2,29.76,NNE,33,3.0,7.0,68,0.00,,,0.19,Wunderground v.1.15,2013-06-25 20:54:00,
2013-06-25 16:59:00,82.8,70.7,29.76,NNE,17,3.0,6.0,67,0.00,,,0.19,Wunderground v.1.15,2013-06-25 20:59:00,
2013-06-25 17:05:00,82.5,70.0,29.76,ENE,61,3.0,6.0,66,0.00,,,0.19,Wunderground v.1.15,2013-06-25 21:05:00,
2013-06-25 17:10:00,82.3,70.7,29.76,North,9,4.0,4.0,68,0.00,,,0.19,Wunderground v.1.15,2013-06-25 21:10:00,
2013-06-25 17:14:00,82.5,70.9,29.76,North,5,2.0,5.0,68,0.00,,,0.19,Wunderground v.1.15,2013-06-25 21:14:00,
2013-06-25 17:19:00,82.4,70.8,29.76,North,5,2.0,2.0,68,0.00,,,0.19,Wunderground v.1.15,2013-06-25 21:19:00,
2013-06-25 17:25:00,82.2,71.0,29.76,NE,56,2.0,5.0,69,0.00,,,0.19,Wunderground v.1.15,2013-06-25 21:25:00,
2013-06-25 17:30:00,82.0,71.7,29.76,NE,45,2.0,2.0,71,0.00,,,0.19,Wunderground v.1.15,2013-06-25 21:30:00,
2013-06-25 17:35:00,81.5,71.2,29.76,North,350,1.0,5.0,71,0.00,,,0.19,Wunderground v.1.15,2013-06-25 21:35:00,
2013-06-25 17:40:00,81.2,72.1,29.76,NNE,14,2.0,2.0,74,0.00,,,0.19,Wunderground v.1.15,2013-06-25 21:40:00,
2013-06-25 17:49:00,81.3,71.8,29.76,NE,43,1.0,5.0,73,0.00,,,0.19,Wunderground v.1.15,2013-06-25 21:49:00,
2013-06-25 17:55:00,81.3,72.2,29.76,NNW,328,2.0,5.0,74,0.00,,,0.19,Wunderground v.1.15,2013-06-25 21:55:00,
2013-06-25 18:00:00,81.7,71.4,29.75,NNE,24,1.0,1.0,71,0.00,,,0.19,Wunderground v.1.15,2013-06-25 22:00:00,
2013-06-25 18:09:00,82.2,72.3,29.75,NNE,17,1.0,5.0,72,0.00,,,0.19,Wunderground v.1.15,2013-06-25 22:09:00,
2013-06-25 18:15:00,82.3,72.4,29.73,NNW,346,1.0,5.0,72,0.00,,,0.19,Wunderground v.1.15,2013-06-25 22:15:00,
2013-06-25 18:20:00,82.5,72.1,29.73,NNE,25,1.0,1.0,71,0.00,,,0.19,Wunderground v.1.15,2013-06-25 22:20:00,
2013-06-25 18:25:00,82.7,71.5,29.73,NNE,28,1.0,2.0,69,0.00,,,0.19,Wunderground v.1.15,2013-06-25 22:25:00,
2013-06-25 18:29:00,82.8,71.6,29.73,NNW,346,2.0,5.0,69,0.00,,,0.19,Wunderground v.1.15,2013-06-25 22:29:00,
2013-06-25 18:35:00,82.7,71.5,29.73,NNE,15,3.0,5.0,69,0.00,,,0.19,Wunderground v.1.15,2013-06-25 22:35:00,
2013-06-25 18:40:00,82.5,71.3,29.73,NE,53,4.0,4.0,69,0.00,,,0.19,Wunderground v.1.15,2013-06-25 22:40:00,
2013-06-25 18:45:00,82.4,71.6,29.73,NE,38,3.0,5.0,70,0.00,,,0.19,Wunderground v.1.15,2013-06-25 22:45:00,
2013-06-25 18:50:00,82.4,71.6,29.73,NNE,33,2.0,2.0,70,0.00,,,0.19,Wunderground v.1.15,2013-06-25 22:50:00,
2013-06-25 18:55:00,82.3,71.1,29.73,North,360,2.0,5.0,69,0.00,,,0.19,Wunderground v.1.15,2013-06-25 22:55:00,
2013-06-25 18:59:00,82.1,71.3,29.73,North,355,2.0,2.0,70,0.00,,,0.19,Wunderground v.1.15,2013-06-25 22:59:00,
2013-06-25 19:05:00,81.7,71.4,29.73,ENE,59,2.0,3.0,71,0.00,,,0.19,Wunderground v.1.15,2013-06-25 23:05:00,
2013-06-25 19:10:00,81.1,70.8,29.73,NE,38,1.0,5.0,71,0.00,,,0.19,Wunderground v.1.15,2013-06-25 23:10:00,
2013-06-25 19:19:00,80.3,70.4,29.73,North,355,2.0,5.0,72,0.00,,,0.19,Wunderground v.1.15,2013-06-25 23:19:00,
2013-06-25 19:24:00,79.9,70.5,29.73,NNE,17,2.0,5.0,73,0.00,,,0.19,Wunderground v.1.15,2013-06-25 23:24:00,
2013-06-25 19:30:00,79.5,70.5,29.74,NNE,12,2.0,2.0,74,0.00,,,0.19,Wunderground v.1.15,2013-06-25 23:30:00,
2013-06-25 19:35:00,79.2,70.6,29.74,ENE,76,1.0,5.0,75,0.00,,,0.19,Wunderground v.1.15,2013-06-25 23:35:00,
2013-06-25 19:40:00,78.9,71.1,29.74,ESE,106,2.0,2.0,77,0.00,,,0.19,Wunderground v.1.15,2013-06-25 23:40:00,
2013-06-25 19:44:00,78.5,71.4,29.75,ESE,117,2.0,5.0,79,0.00,,,0.19,Wunderground v.1.15,2013-06-25 23:44:00,
2013-06-25 19:49:00,78.2,71.5,29.75,ENE,67,2.0,5.0,80,0.00,,,0.19,Wunderground v.1.15,2013-06-25 23:49:00,
2013-06-25 19:55:00,77.9,71.2,29.75,ENE,67,1.0,5.0,80,0.00,,,0.19,Wunderground v.1.15,2013-06-25 23:55:00,
2013-06-25 20:00:00,77.6,71.3,29.74,ENE,62,0.0,5.0,81,0.00,,,0.19,Wunderground v.1.15,2013-06-26 00:00:00,
2013-06-25 20:04:00,77.3,71.0,29.74,ESE,106,1.0,5.0,81,0.00,,,0.19,Wunderground v.1.15,2013-06-26 00:04:00,
2013-06-25 20:09:00,77.0,71.1,29.74,ESE,107,2.0,5.0,82,0.00,,,0.19,Wunderground v.1.15,2013-06-26 00:09:00,
2013-06-25 20:15:00,76.9,71.0,29.73,ESE,107,1.0,5.0,82,0.00,,,0.19,Wunderground v.1.15,2013-06-26 00:15:00,
2013-06-25 20:25:00,76.5,70.9,29.73,SE,140,1.0,5.0,83,0.00,,,0.19,Wunderground v.1.15,2013-06-26 00:25:00,
2013-06-25 20:30:00,76.4,70.9,29.74,SE,140,1.0,1.0,83,0.00,,,0.19,Wunderground v.1.15,2013-06-26 00:30:00,
2013-06-25 20:35:00,76.2,71.0,29.74,SE,140,0.0,4.0,84,0.00,,,0.19,Wunderground v.1.15,2013-06-26 00:35:00,
2013-06-25 20:40:00,76.1,71.3,29.74,SE,140,0.0,5.0,85,0.00,,,0.20,Wunderground v.1.15,2013-06-26 00:40:00,
2013-06-25 20:45:00,75.9,71.1,29.74,SE,140,0.0,5.0,85,0.00,,,0.20,Wunderground v.1.15,2013-06-26 00:45:00,
2013-06-25 20:50:00,75.7,70.9,29.74,SE,140,0.0,5.0,85,0.07,,,0.21,Wunderground v.1.15,2013-06-26 00:50:00,
2013-06-25 20:54:00,75.4,70.9,29.74,SE,140,0.0,5.0,86,0.08,,,0.21,Wunderground v.1.15,2013-06-26 00:54:00,
2013-06-25 21:00:00,75.2,71.4,29.74,SE,140,0.0,5.0,88,0.15,,,0.23,Wunderground v.1.15,2013-06-26 01:00:00,
2013-06-25 21:05:00,74.8,71.0,29.74,SE,140,0.0,5.0,88,0.15,,,0.24,Wunderground v.1.15,2013-06-26 01:05:00,
2013-06-25 21:10:00,74.5,71.0,29.74,SE,140,0.0,5.0,89,0.08,,,0.24,Wunderground v.1.15,2013-06-26 01:10:00,
2013-06-25 21:14:00,74.4,70.9,29.75,SE,140,0.0,5.0,89,0.08,,,0.25,Wunderground v.1.15,2013-06-26 01:14:00,
2013-06-25 21:20:00,74.2,71.1,29.75,SE,140,0.0,5.0,90,0.06,,,0.25,Wunderground v.1.15,2013-06-26 01:20:00,
2013-06-25 21:25:00,74.1,71.3,29.75,SE,140,0.0,5.0,91,0.06,,,0.26,Wunderground v.1.15,2013-06-26 01:25:00,
2013-06-25 21:30:00,74.0,71.2,29.76,SE,140,0.0,5.0,91,0.10,,,0.27,Wunderground v.1.15,2013-06-26 01:30:00,
2013-06-25 21:34:00,73.8,71.0,29.76,SE,140,0.0,5.0,91,0.07,,,0.27,Wunderground v.1.15,2013-06-26 01:34:00,
2013-06-25 21:45:00,73.7,71.5,29.76,SE,140,0.0,5.0,93,0.05,,,0.28,Wunderground v.1.15,2013-06-26 01:45:00,
2013-06-25 21:50:00,73.6,71.4,29.76,SE,140,0.0,5.0,93,0.05,,,0.28,Wunderground v.1.15,2013-06-26 01:50:00,
2013-06-25 21:55:00,73.4,71.3,29.76,SE,140,0.0,5.0,93,0.00,,,0.28,Wunderground v.1.15,2013-06-26 01:55:00,
2013-06-25 22:05:00,73.2,71.1,29.75,SE,140,0.0,5.0,93,0.00,,,0.01,Wunderground v.1.15,2013-06-26 02:05:00,
2013-06-25 22:10:00,73.1,71.3,29.75,SE,140,0.0,5.0,94,0.00,,,0.01,Wunderground v.1.15,2013-06-26 02:10:00,
2013-06-25 22:15:00,73.0,71.2,29.75,SE,140,0.0,5.0,94,0.00,,,0.01,Wunderground v.1.15,2013-06-26 02:15:00,
2013-06-25 22:19:00,72.9,71.1,29.75,SE,140,0.0,5.0,94,0.00,,,0.01,Wunderground v.1.15,2013-06-26 02:19:00,
2013-06-25 22:24:00,72.9,71.1,29.75,SE,140,0.0,5.0,94,0.04,,,0.02,Wunderground v.1.15,2013-06-26 02:24:00,
2013-06-25 22:30:00,72.8,71.0,29.76,WSW,246,0.0,5.0,94,0.04,,,0.02,Wunderground v.1.15,2013-06-26 02:30:00,
2013-06-25 22:35:00,72.8,71.0,29.76,West,267,0.0,5.0,94,0.06,,,0.03,Wunderground v.1.15,2013-06-26 02:35:00,
2013-06-25 22:40:00,72.8,71.3,29.76,West,259,0.0,5.0,95,0.06,,,0.03,Wunderground v.1.15,2013-06-26 02:40:00,
2013-06-25 22:50:00,72.6,70.8,29.77,WNW,291,1.0,1.0,94,0.04,,,0.04,Wunderground v.1.15,2013-06-26 02:50:00,
2013-06-25 22:55:00,72.0,69.9,29.77,NW,321,2.0,2.0,93,0.71,,,0.08,Wunderground v.1.15,2013-06-26 02:55:00,
2013-06-25 22:59:00,71.4,69.3,29.76,NW,311,2.0,6.0,93,0.39,,,0.11,Wunderground v.1.15,2013-06-26 02:59:00,
2013-06-25 23:04:00,70.6,68.5,29.76,NW,315,3.0,6.0,93,0.67,,,0.19,Wunderground v.1.15,2013-06-26 03:04:00,
2013-06-25 23:10:00,70.2,68.1,29.76,NNW,329,2.0,5.0,93,0.15,,,0.21,Wunderground v.1.15,2013-06-26 03:10:00,
2013-06-25 23:15:00,70.1,68.3,29.77,NNW,329,1.0,5.0,94,0.11,,,0.21,Wunderground v.1.15,2013-06-26 03:15:00,
2013-06-25 23:25:00,69.9,68.4,29.77,NNW,329,0.0,5.0,95,0.04,,,0.21,Wunderground v.1.15,2013-06-26 03:25:00,
2013-06-25 23:30:00,69.6,67.8,29.80,NW,304,2.0,2.0,94,0.00,,,0.21,Wunderground v.1.15,2013-06-26 03:30:00,
2013-06-25 23:35:00,69.4,67.9,29.80,NW,317,2.0,5.0,95,0.00,,,0.22,Wunderground v.1.15,2013-06-26 03:35:00,
2013-06-25 23:45:00,68.9,67.4,29.81,NW,318,2.0,5.0,95,0.15,,,0.24,Wunderground v.1.15,2013-06-26 03:45:00,
2013-06-25 23:49:00,68.6,66.8,29.81,NW,304,2.0,2.0,94,0.13,,,0.25,Wunderground v.1.15,2013-06-26 03:49:00,
2013-06-25 23:55:00,68.4,66.9,29.81,NW,304,2.0,5.0,95,0.38,,,0.28,Wunderground v.1.15,2013-06-26 03:55:00,